Location: Newark
(34.0131°N, 4.3314°W)
Time: 23:02:30
(UTC+00:00)

Transit 2A - Visible Passes

Search period start: 17 October 2019 00:00
Search period end: 27 October 2019 00:00
Orbit: 600 x 959 km, 66.7° (Epoch: 17 October)

Date Brightness Start Highest point End Pass type
(mag) Time Alt. Az. Time Alt. Az. Time Alt. Az.
17 Oct 5.5 05:41:18 10° NNW 05:45:39 89° E 05:50:02 10° SSE visible
17 Oct 7.4 18:35:19 10° SSE 18:39:14 19° ESE 18:40:21 18° E visible
17 Oct 7.2 20:16:40 10° SW 20:20:56 41° W 20:20:56 41° W visible
18 Oct 6.3 05:07:17 10° NNW 05:11:32 53° ENE 05:15:49 10° SE visible
18 Oct 7.8 18:03:12 10° SE 18:05:16 12° ESE 18:07:18 10° E visible
18 Oct 6.2 19:42:19 10° SSW 19:48:00 73° WNW 19:49:04 56° N visible
19 Oct 7.2 04:33:26 10° N 04:37:21 32° ENE 04:41:18 10° ESE visible
19 Oct 5.9 19:08:13 10° SSW 19:13:54 75° ESE 19:17:03 24° NNE visible
19 Oct 8.7 20:54:42 10° W 20:57:26 14° NW 20:57:37 14° NW visible
20 Oct 7.9 04:01:15 16° NNE 04:03:08 21° NE 04:06:27 10° ESE visible
20 Oct 6.4 05:42:29 10° NW 05:46:13 28° WSW 05:50:00 10° S visible
20 Oct 6.3 18:34:21 10° S 18:39:49 48° ESE 18:44:48 10° NE visible
20 Oct 8.3 20:19:07 10° WSW 20:23:07 20° NW 20:25:24 16° NNW visible
21 Oct 8.5 03:29:24 13° ENE 03:29:24 13° ENE 03:31:04 10° E visible
21 Oct 5.7 05:10:00 25° NW 05:12:12 48° WSW 05:16:27 10° S visible
21 Oct 6.9 18:00:49 10° S 18:05:46 31° ESE 18:10:21 10° NE visible
21 Oct 7.8 19:44:04 10° WSW 19:48:52 29° WNW 19:53:00 11° N visible
22 Oct 5.3 04:38:12 82° SW 04:38:12 82° SW 04:42:34 10° SSE visible
22 Oct 7.1 19:09:23 10° SW 19:14:42 44° WNW 19:19:32 10° NNE visible
23 Oct 7.4 04:06:24 25° SE 04:06:24 25° SE 04:08:23 10° SE visible
23 Oct 6.4 18:34:57 10° SW 18:40:33 67° WNW 18:45:37 10° NNE visible
24 Oct 7.8 05:15:10 11° SW 05:15:10 11° SW 05:15:19 10° SW visible
24 Oct 6.0 18:00:48 10° SSW 18:06:27 81° ESE 18:11:32 10° NNE visible
24 Oct 8.7 19:47:49 10° WNW 19:50:01 12° NW 19:52:10 10° NNW visible
25 Oct 8.5 19:12:00 10° W 19:15:42 18° NW 19:19:11 10° N visible
26 Oct 8.0 18:36:53 10° WSW 18:41:27 27° WNW 18:45:41 10° N visible
